Location: Napier
(39.4830°S, 176.9170°E)
Time: 02:12:04
(UTC+12:00)

Cosmos 1934 Rocket - Pass Details

Date: 15 August 2020
Orbit: 937 x 1000 km, 83.0° (Epoch: 20 September)

Event Time Altitude Azimuth Distance (km) Brightness Sun altitude
Rises 19:50:53 0° 189° (S) 3,681 7.2 -26.8°
Reaches altitude 10° 19:53:23 10° 190° (S) 2,737 6.5 -27.3°
Maximum altitude 19:59:39 75° 274° (W) 1,021 4.1 -28.5°
Drops below altitude 10° 20:05:57 10° 358° (N) 2,746 6.3 -29.7°
Sets 20:08:28 0° 360° (N) 3,694 7.0 -30.2°
